Data charts dashboard

Select data range

 
Start datetime:
 
 
End datetime:
 
 
Load data
 
Get the data!
Showing results from 2018/05/20 03:53 to 2018/05/20 09:53

Timestamp Station Temperature Humidity Pressure Soundlevel Lightlevel
5/20/2018 9:52:42 AM stm32lrwan1_1 @ 867.9 Mhz 19.6 51 1024.1 47 93
5/20/2018 9:47:42 AM stm32lrwan1_1 @ 868.5 Mhz 19.7 51 1024.1 47 86
5/20/2018 9:42:42 AM stm32lrwan1_1 @ 868.1 Mhz 19.6 51 1024.2 46 53
5/20/2018 9:37:42 AM stm32lrwan1_1 @ 867.3 Mhz 19.6 51 1024.2 46 69
5/20/2018 9:32:42 AM stm32lrwan1_1 @ 868.5 Mhz 19.6 51 1024.4 46 54
5/20/2018 9:27:42 AM stm32lrwan1_1 @ 867.7 Mhz 19.6 51 1024.3 47 53
5/20/2018 9:22:42 AM stm32lrwan1_1 @ 867.5 Mhz 19.6 51 1024.4 48 41
5/20/2018 9:17:42 AM stm32lrwan1_1 @ 867.9 Mhz 19.6 51 1024.4 46 24
5/20/2018 9:12:42 AM stm32lrwan1_1 @ 867.9 Mhz 19.6 51 1024.3 46 33
5/20/2018 9:07:42 AM stm32lrwan1_1 @ 868.5 Mhz 19.6 51 1024.3 46 10
5/20/2018 9:02:42 AM stm32lrwan1_1 @ 868.1 Mhz 19.5 51 1024.4 47 4
5/20/2018 8:57:42 AM stm32lrwan1_1 @ 867.1 Mhz 19.6 51 1024.5 46 250
5/20/2018 8:52:42 AM stm32lrwan1_1 @ 867.1 Mhz 19.6 52 1024.6 47 239
5/20/2018 8:47:42 AM stm32lrwan1_1 @ 867.5 Mhz 19.5 51 1024.5 47 229
5/20/2018 8:42:42 AM stm32lrwan1_1 @ 867.5 Mhz 19.5 52 1024.3 47 213
5/20/2018 8:37:42 AM stm32lrwan1_1 @ 867.9 Mhz 19.5 51 1024.6 46 199
5/20/2018 8:32:42 AM stm32lrwan1_1 @ 867.9 Mhz 19.5 51 1024.5 47 181
5/20/2018 8:27:42 AM stm32lrwan1_1 @ 868.5 Mhz 19.5 51 1024.6 47 167
5/20/2018 8:22:42 AM stm32lrwan1_1 @ 868.1 Mhz 19.5 51 1024.5 47 168
5/20/2018 8:17:42 AM stm32lrwan1_1 @ 867.1 Mhz 19.4 51 1024.6 46 160
5/20/2018 8:12:42 AM stm32lrwan1_1 @ 867.1 Mhz 19.4 52 1024.5 45 146
5/20/2018 8:07:42 AM stm32lrwan1_1 @ 867.7 Mhz 19.4 51 1024.6 47 135
5/20/2018 8:02:42 AM stm32lrwan1_1 @ 867.5 Mhz 19.4 51 1024.5 46 119
5/20/2018 7:57:42 AM stm32lrwan1_1 @ 867.9 Mhz 19.4 52 1024.6 47 103
5/20/2018 7:52:42 AM stm32lrwan1_1 @ 867.9 Mhz 19.4 52 1024.6 47 99
5/20/2018 7:47:42 AM stm32lrwan1_1 @ 868.3 Mhz 19.4 52 1024.6 46 90
5/20/2018 7:42:42 AM stm32lrwan1_1 @ 868.3 Mhz 19.29 52 1024.5 46 73
5/20/2018 7:37:41 AM stm32lrwan1_1 @ 867.3 Mhz 19.4 52 1024.4 49 65
5/20/2018 7:32:42 AM stm32lrwan1_1 @ 868.5 Mhz 19.29 52 1024.6 49 61
5/20/2018 7:27:41 AM stm32lrwan1_1 @ 867.5 Mhz 19.4 52 1024.6 47 44
5/20/2018 7:22:41 AM stm32lrwan1_1 @ 867.3 Mhz 19.29 52 1024.7 47 27
5/20/2018 7:17:41 AM stm32lrwan1_1 @ 867.9 Mhz 19.29 52 1024.6 47 28
5/20/2018 7:12:42 AM stm32lrwan1_1 @ 867.7 Mhz 19.29 52 1024.7 49 11
5/20/2018 7:07:41 AM stm32lrwan1_1 @ 868.3 Mhz 19.29 52 1024.5 47 2
5/20/2018 7:02:41 AM stm32lrwan1_1 @ 868.1 Mhz 19.29 52 1024.6 47 4
5/20/2018 6:57:41 AM stm32lrwan1_1 @ 867.1 Mhz 19.2 52 1024.6 47 13
5/20/2018 6:52:41 AM stm32lrwan1_1 @ 867.1 Mhz 19.2 52 1024.4 47 232
5/20/2018 6:47:41 AM stm32lrwan1_1 @ 867.7 Mhz 19.2 52 1024.6 46 37
5/20/2018 6:42:42 AM stm32lrwan1_1 @ 867.5 Mhz 19.2 52 1024.7 46 234
5/20/2018 6:37:45 AM stm32lrwan1_1 @ 868.1 Mhz 19.2 52 1024.6 47 25
5/20/2018 6:32:41 AM stm32lrwan1_1 @ 867.7 Mhz 19.1 52 1024.7 46 176
5/20/2018 6:27:41 AM stm32lrwan1_1 @ 868.3 Mhz 19.1 52 1024.6 47 1
5/20/2018 6:22:41 AM stm32lrwan1_1 @ 868.1 Mhz 19.1 52 1024.5 46 233
5/20/2018 6:17:41 AM stm32lrwan1_1 @ 867.1 Mhz 19.1 52 1024.5 45 143
5/20/2018 6:12:41 AM stm32lrwan1_1 @ 868.5 Mhz 19.1 52 1024.5 47 219
5/20/2018 6:07:41 AM stm32lrwan1_1 @ 867.5 Mhz 19.1 52 1024.4 47 183
5/20/2018 6:02:41 AM stm32lrwan1_1 @ 867.5 Mhz 19 52 1024.3 46 105
5/20/2018 5:57:41 AM stm32lrwan1_1 @ 867.9 Mhz 19.1 52 1024.4 46 171
5/20/2018 5:52:41 AM stm32lrwan1_1 @ 867.7 Mhz 19 52 1024.4 47 143
5/20/2018 5:47:41 AM stm32lrwan1_1 @ 868.3 Mhz 19.1 52 1024.5 46 75
5/20/2018 5:42:41 AM stm32lrwan1_1 @ 868.1 Mhz 19 52 1024.5 47 252
5/20/2018 5:37:41 AM stm32lrwan1_1 @ 867.1 Mhz 19.1 52 1024.4 45 191
5/20/2018 5:32:41 AM stm32lrwan1_1 @ 867.1 Mhz 19 52 1024.5 46 151
5/20/2018 5:27:41 AM stm32lrwan1_1 @ 867.7 Mhz 19 52 1024.6 47 99
5/20/2018 5:22:41 AM stm32lrwan1_1 @ 867.5 Mhz 19 52 1024.6 47 117
5/20/2018 5:17:41 AM stm32lrwan1_1 @ 867.9 Mhz 19 52 1024.5 46 227
5/20/2018 5:12:41 AM stm32lrwan1_1 @ 867.7 Mhz 19 52 1024.7 47 180
5/20/2018 5:07:41 AM stm32lrwan1_1 @ 868.5 Mhz 19 52 1024.6 46 117
5/20/2018 5:02:41 AM stm32lrwan1_1 @ 868.1 Mhz 19 52 1024.5 46 76
5/20/2018 4:57:41 AM stm32lrwan1_1 @ 867.3 Mhz 19 52 1024.4 47 205
5/20/2018 4:52:41 AM stm32lrwan1_1 @ 868.5 Mhz 18.9 52 1024.4 45 158
5/20/2018 4:47:41 AM stm32lrwan1_1 @ 867.7 Mhz 19 52 1024.4 46 84
5/20/2018 4:42:41 AM stm32lrwan1_1 @ 867.5 Mhz 19 52 1024.4 46 14
5/20/2018 4:37:41 AM stm32lrwan1_1 @ 868.1 Mhz 19 52 1024.4 46 196
5/20/2018 4:32:41 AM stm32lrwan1_1 @ 867.7 Mhz 18.9 52 1024.3 47 146
5/20/2018 4:27:41 AM stm32lrwan1_1 @ 868.5 Mhz 19 52 1024.4 47 112
5/20/2018 4:22:41 AM stm32lrwan1_1 @ 868.1 Mhz 18.9 51 1024.4 47 74
5/20/2018 4:17:41 AM stm32lrwan1_1 @ 867.1 Mhz 19 51 1024.3 47 37
5/20/2018 4:12:41 AM stm32lrwan1_1 @ 868.5 Mhz 19 51 1024.3 46 251
5/20/2018 4:07:41 AM stm32lrwan1_1 @ 867.5 Mhz 19.1 51 1024.3 47 213
5/20/2018 4:02:41 AM stm32lrwan1_1 @ 867.3 Mhz 19.1 51 1024.5 46 190
5/20/2018 3:57:41 AM stm32lrwan1_1 @ 868.1 Mhz 19.1 51 1024.4 45 187